Theta_e
353 354 356 358 359 358 359 360 361 360 361 363 363 361 362 363 361 360 364 365 366 366 367 367 367 367 367 367 367 368 368 368 368 368 368 369 369 368 367 365 365 364 364 364 365 366 364 364 365 364 364 363 364 364 364 364 364 363 363 360 360 361 360 359 359 359 359 356 356 357 358 358 357 357 356 357 356 356 357 357 357 353 354 354 356
353 356 356 356 358 357 357 360 361 360 362 362 362 362 363 363 360 358 361 364 365 366 366 367 366 367 368 368 367 367 367 368 368 368 368 369 368 368 366 366 365 365 365 365 366 365 364 364 364 364 363 364 363 364 364 364 363 363 363 363 362 361 361 359 358 358 358 359 356 357 357 356 356 357 356 355 356 357 357 357 357 354 354 355 357
355 357 357 356 358 357 357 360 362 361 362 362 362 363 363 363 361 359 361 364 366 364 366 367 367 367 368 368 368 368 368 368 367 367 368 368 368 367 367 366 366 365 365 366 365 365 365 364 364 364 364 364 362 362 361 364 363 363 363 363 363 362 361 360 359 357 359 359 359 359 359 356 357 357 355 355 355 358 358 357 357 357 354 357 357
354 357 357 357 357 359 360 362 362 362 361 362 361 361 362 364 364 364 363 365 366 366 366 366 367 368 368 367 367 368 368 368 367 368 368 368 367 367 366 366 365 365 365 365 365 364 364 364 363 363 363 363 363 362 361 362 363 361 362 363 362 362 361 360 359 358 359 358 357 356 357 354 356 356 356 356 357 357 359 359 358 357 356 356 357
353 356 357 356 356 359 361 363 363 362 363 360 361 360 363 364 363 363 365 364 365 366 366 365 367 367 367 367 367 367 367 367 367 368 368 368 367 367 368 367 367 365 365 365 365 364 363 364 364 363 363 364 363 363 362 362 363 363 364 362 363 363 361 360 360 358 359 358 357 357 353 353 357 356 357 355 356 356 360 360 360 359 358 357 357
354 355 355 355 356 359 362 363 363 363 361 361 362 363 362 364 363 362 365 365 365 365 366 366 367 367 367 367 367 367 367 367 367 368 368 368 368 368 368 368 368 368 366 366 366 365 365 364 364 364 364 364 363 363 364 364 364 363 363 363 362 362 362 361 360 359 359 358 356 359 354 352 353 354 357 357 356 357 358 359 359 358 358 357 356
356 355 355 356 358 361 363 363 364 364 363 363 363 364 363 361 363 365 365 364 364 365 365 366 366 365 366 366 366 366 366 366 367 368 369 369 368 368 368 368 368 367 367 368 367 366 366 366 365 364 365 364 363 363 364 365 364 364 363 362 363 363 362 361 360 361 359 357 358 357 353 352 354 354 357 358 357 357 358 358 357 358 358 357 356
355 356 357 356 358 361 363 363 363 364 363 364 364 364 364 364 365 366 366 365 364 364 364 365 365 365 365 366 365 365 366 366 367 367 368 368 368 369 367 367 366 366 366 366 366 366 365 365 364 364 364 363 363 364 363 364 363 363 364 363 363 363 362 362 361 360 358 356 356 356 355 359 357 355 357 358 358 357 358 357 355 356 358 357 358
354 355 357 358 359 363 363 363 363 363 363 364 364 364 364 366 366 366 366 365 364 364 364 364 364 365 365 365 365 365 365 366 367 367 368 367 368 367 367 365 365 366 365 365 365 365 364 364 364 363 362 362 362 362 363 363 364 363 363 363 362 362 363 363 361 361 357 354 353 355 358 358 356 354 357 358 358 358 358 358 357 355 357 358 358
354 356 357 358 359 364 364 364 363 364 364 364 364 364 365 366 366 366 365 365 364 364 363 364 364 365 364 364 364 364 365 366 367 368 369 369 368 367 366 366 365 365 365 364 364 364 363 362 362 362 361 361 361 361 362 363 363 363 361 363 362 362 363 363 360 360 354 353 352 353 355 358 359 353 356 358 358 357 358 358 356 355 355 358 357
354 355 356 357 360 364 364 365 364 364 365 365 365 365 365 365 365 364 364 364 364 364 363 363 364 365 365 364 364 364 364 366 367 368 368 368 367 366 365 365 365 365 365 365 364 364 362 362 362 362 361 361 361 360 361 362 362 362 362 363 364 362 362 361 360 356 353 354 354 356 356 358 357 355 358 357 357 356 356 356 358 356 355 357 358
355 356 358 360 367 365 364 365 366 365 365 365 366 366 366 365 364 364 364 364 364 363 363 363 364 365 364 364 364 364 363 365 366 367 367 367 366 365 365 364 364 365 365 364 364 363 363 362 361 361 361 361 361 360 360 360 362 362 361 362 362 362 361 361 360 357 356 354 354 360 354 352 354 355 358 357 356 356 356 357 356 357 356 357 358
355 357 359 362 363 364 365 366 367 366 366 366 366 366 365 365 365 364 364 364 364 364 363 363 364 365 364 364 364 363 363 363 365 366 366 365 365 365 364 364 364 364 364 363 363 363 363 362 361 359 361 361 361 359 360 359 361 362 362 362 362 362 362 362 358 356 355 356 354 359 358 360 355 358 358 357 356 357 356 357 357 357 355 355 356
355 357 358 360 363 368 365 367 367 367 367 366 366 365 365 365 365 364 364 364 364 364 364 365 364 364 364 364 364 363 363 364 364 366 366 365 364 364 364 363 363 363 362 363 362 362 362 361 360 360 361 361 360 359 359 360 361 361 362 362 362 361 361 360 357 355 355 355 358 360 358 362 356 359 357 356 357 357 357 357 356 356 356 355 355
356 356 357 360 363 364 368 367 367 367 367 366 366 366 364 365 365 364 364 364 364 365 365 365 365 364 364 364 364 363 364 364 364 366 366 366 365 365 364 363 363 363 362 362 362 362 362 361 360 360 361 361 359 359 359 361 361 362 361 362 361 361 361 355 355 354 354 357 357 357 359 362 359 358 358 357 356 358 356 357 356 356 355 355 355
356 356 359 360 362 365 366 369 367 367 368 367 367 366 366 365 366 365 364 364 364 364 365 365 365 364 364 364 364 364 364 364 364 365 365 366 367 365 364 364 363 363 362 361 362 362 362 361 360 360 360 361 360 359 359 360 360 361 361 361 361 362 361 359 357 356 356 356 360 359 361 361 362 358 358 357 356 356 355 356 357 356 356 355 355
356 358 356 357 361 361 362 365 366 368 368 368 367 366 366 366 366 365 365 364 364 364 364 364 364 365 365 365 365 365 365 365 364 364 364 363 365 365 364 365 364 363 362 362 362 362 362 362 361 360 361 361 361 361 361 361 362 363 361 361 361 362 363 360 355 357 354 358 358 358 359 360 363 357 359 359 357 357 356 356 356 356 356 355 355
355 354 355 357 356 358 359 362 366 366 366 367 368 368 367 366 366 366 365 364 364 364 364 364 364 365 364 365 365 365 365 364 365 364 363 363 359 361 363 363 364 363 363 363 363 363 362 362 361 361 361 362 362 362 363 363 364 363 363 363 363 363 363 362 358 356 356 359 360 360 361 359 362 357 356 358 358 356 357 356 356 356 356 356 355
353 354 356 354 355 356 358 364 366 364 365 365 366 367 368 367 367 366 365 365 365 364 364 364 365 365 365 365 365 365 365 365 366 364 363 361 362 360 362 362 362 362 362 363 363 362 363 362 360 361 362 361 362 362 364 363 362 365 364 365 365 363 362 358 356 358 358 361 363 360 360 363 361 359 357 358 359 358 358 357 356 356 355 356 356
354 353 353 354 355 356 360 361 363 364 364 363 365 366 367 367 367 366 365 365 365 364 365 365 366 365 365 364 365 365 365 365 365 363 362 360 361 360 363 363 363 362 362 361 362 362 364 363 360 360 362 362 364 362 362 361 364 365 364 364 365 364 360 357 354 358 356 357 361 359 361 361 361 359 358 357 358 359 358 357 357 356 355 355 356
353 354 355 355 356 358 361 361 363 363 362 362 363 365 366 367 366 366 366 365 365 365 366 366 365 365 364 364 365 364 367 366 365 363 361 361 365 363 365 363 364 363 362 362 363 362 360 361 361 362 360 362 363 364 364 362 363 365 365 363 362 359 357 355 355 357 357 359 365 362 360 361 362 361 359 357 358 359 358 358 357 356 356 355 356
351 352 356 356 357 360 360 362 362 362 363 363 364 366 367 367 366 366 365 365 366 366 366 366 367 366 365 366 367 365 367 370 369 364 365 364 365 363 365 365 365 363 363 363 363 362 362 362 358 359 363 363 361 362 366 364 364 366 367 364 357 360 356 351 356 354 355 359 360 362 362 363 363 363 360 358 357 358 359 358 357 357 356 356 356
350 352 354 356 359 359 360 360 361 363 362 364 363 364 366 367 365 366 365 367 367 367 367 366 366 366 367 365 369 366 367 368 369 366 364 364 364 365 363 364 364 365 365 364 364 362 364 362 359 360 360 362 362 366 367 370 365 365 366 363 363 353 358 354 353 354 356 357 361 363 364 364 363 363 360 358 358 357 358 358 357 357 357 357 357
351 353 353 357 358 358 360 361 362 363 363 362 362 363 364 366 364 364 364 365 366 366 366 366 366 367 365 366 365 367 366 366 368 368 365 365 361 362 365 367 367 366 365 362 362 365 363 362 361 360 358 360 365 365 359 358 358 362 359 363 357 357 359 354 355 356 356 361 361 362 363 364 364 362 361 360 358 357 357 358 358 358 357 357 357
352 354 356 357 358 359 359 362 364 364 363 362 361 361 363 363 363 363 363 364 364 365 363 364 365 367 366 368 364 365 363 363 366 367 366 364 364 371 366 367 367 366 366 366 365 364 365 362 363 361 363 364 360 360 360 361 363 360 359 356 360 359 356 355 355 358 359 361 357 360 360 362 365 362 362 361 359 358 357 358 358 358 358 357 357
353 352 355 356 357 358 359 360 361 363 363 361 360 362 364 362 363 364 362 362 363 362 362 362 363 369 367 365 366 363 362 362 364 363 365 367 369 367 367 369 366 364 365 363 366 364 365 364 362 364 362 361 358 360 357 360 362 362 357 356 359 360 359 357 354 360 360 359 357 359 361 361 363 364 362 361 361 358 357 358 357 359 358 357 357
350 352 354 356 356 357 359 360 360 365 365 364 362 362 363 363 364 364 362 361 362 361 360 361 363 370 367 366 360 364 361 357 363 367 362 366 363 367 368 366 365 363 364 358 361 363 362 361 366 364 362 357 359 360 364 359 361 358 355 351 357 355 356 357 360 358 358 361 359 363 363 360 362 362 362 360 360 359 358 357 358 357 358 358 357
350 350 353 355 355 355 360 360 362 362 364 364 363 361 364 361 362 364 363 363 362 362 360 361 365 367 367 364 366 359 360 357 364 361 364 365 363 363 364 361 363 364 365 360 357 357 363 365 362 362 364 365 355 361 358 360 359 357 354 355 354 349 358 354 357 356 357 360 359 362 362 363 362 361 362 361 361 359 358 358 358 358 357 358 358
348 349 351 353 355 357 360 359 360 364 361 360 359 362 361 361 359 358 359 365 362 363 363 363 362 366 366 367 367 359 358 355 360 362 365 361 362 362 364 363 360 361 359 358 361 358 360 362 363 362 363 363 362 359 359 357 355 358 354 354 350 349 353 355 354 354 351 358 359 360 364 363 362 361 362 361 362 361 360 359 359 359 359 357 358
349 350 351 352 355 356 358 358 360 361 361 358 360 360 362 361 364 364 363 365 363 363 364 360 363 362 364 366 366 366 361 356 362 367 366 363 363 363 363 362 362 364 359 356 364 364 364 363 360 362 360 365 359 358 361 352 348 351 355 355 348 349 355 354 353 353 358 356 359 359 364 364 362 363 361 362 361 362 361 360 361 359 358 359 357
351 350 350 352 354 355 355 358 360 364 361 358 360 361 363 361 363 363 364 363 363 366 363 362 357 359 363 369 369 373 368 362 365 368 366 364 364 365 365 365 365 365 365 364 368 364 361 359 364 364 363 361 358 360 363 355 356 348 351 353 352 356 356 355 344 350 347 351 360 360 359 364 364 363 363 361 362 363 362 362 363 361 360 358 359
350 351 351 355 351 352 354 356 358 362 363 357 362 361 362 362 364 365 363 365 369 363 362 363 366 371 369 368 374 373 370 373 367 364 364 366 363 363 365 365 364 365 364 362 365 365 365 362 366 365 363 362 359 360 358 357 357 349 352 351 350 357 348 347 341 339 348 348 350 360 360 358 363 363 363 363 362 363 363 362 362 362 360 359 356
351 352 354 353 351 352 353 356 359 363 362 357 358 360 361 360 362 363 365 368 367 366 361 363 368 372 373 371 373 372 375 369 374 368 368 366 363 363 363 364 365 367 365 361 364 367 366 363 362 364 366 363 357 356 358 353 348 350 348 351 351 349 352 345 351 342 346 343 350 353 359 359 356 364 362 364 363 363 363 363 362 361 360 359 356
352 353 353 351 353 352 354 355 358 359 362 357 362 358 361 361 363 363 366 367 365 363 364 369 372 371 370 371 368 372 373 372 372 371 370 365 363 362 363 360 362 363 365 367 366 368 362 356 354 353 354 359 360 358 358 354 353 356 354 351 349 352 349 351 343 353 350 343 347 350 352 360 360 356 361 363 364 364 364 364 364 362 358 352 353
354 353 354 356 358 354 354 353 358 359 360 359 361 361 363 360 361 363 363 367 365 363 359 364 366 369 371 373 370 372 372 373 373 375 368 368 361 361 360 361 363 364 365 368 365 365 362 359 359 353 358 356 355 355 352 351 350 351 354 356 348 351 344 349 350 351 344 354 353 348 350 351 358 359 358 358 363 364 365 364 364 363 360 353 354
355 356 356 357 356 357 358 353 355 359 359 360 362 363 362 365 363 362 364 368 364 362 363 361 362 366 364 369 370 372 371 371 372 372 371 368 366 361 362 365 363 365 364 366 367 362 359 356 357 354 354 351 354 351 350 356 353 355 356 353 354 352 348 341 345 341 344 348 354 355 351 356 354 360 356 356 357 361 364 365 364 362 361 357 355
354 356 356 359 359 358 359 353 352 357 360 359 364 366 369 366 365 362 360 366 361 362 365 364 365 363 365 363 370 367 368 368 370 373 371 366 366 363 362 361 364 363 364 366 364 361 360 352 358 359 355 356 351 344 347 350 347 355 354 348 350 350 348 355 346 342 352 347 351 345 347 352 357 354 363 358 359 361 360 363 360 359 355 359 357
354 354 357 359 357 358 357 356 356 354 362 363 364 365 366 368 364 364 367 362 359 360 362 365 366 363 365 370 371 370 367 368 368 369 372 369 365 360 360 363 361 362 362 362 361 358 356 353 360 361 357 354 352 345 342 342 343 344 344 339 350 345 346 350 349 355 349 350 349 355 350 348 349 352 350 353 355 361 357 359 361 361 359 358 358
352 355 358 361 360 360 360 361 363 358 360 365 367 367 367 368 363 364 363 365 367 364 363 364 364 363 360 369 372 370 370 369 367 368 370 368 371 365 362 362 365 365 358 356 355 354 354 359 356 356 360 356 354 351 350 346 344 341 342 347 349 353 354 351 362 352 349 345 339 345 342 356 347 349 350 352 357 358 357 357 358 356 357 358 358
354 357 361 361 361 361 361 362 364 361 364 365 365 362 361 360 358 360 359 362 363 364 366 364 362 363 364 369 372 370 370 366 365 366 367 370 369 369 365 363 361 358 355 353 353 352 356 354 354 350 351 352 353 352 353 350 350 350 347 347 353 352 353 354 349 343 355 346 345 348 336 344 346 348 344 350 352 354 357 357 357 354 356 355 356
357 358 360 360 361 360 360 360 362 364 363 361 360 360 358 358 359 356 355 357 361 364 363 364 363 360 367 371 372 371 369 366 365 365 365 367 368 369 367 361 358 354 354 355 355 354 358 359 360 356 350 352 350 352 349 349 350 345 352 346 352 352 347 350 345 343 344 349 343 343 343 336 338 339 347 347 349 352 355 356 355 354 356 357 355
355 357 357 359 361 360 360 361 361 363 361 361 362 361 362 358 357 356 355 356 361 362 362 365 364 366 371 372 372 371 370 366 364 363 363 363 366 366 364 361 355 352 353 355 355 354 356 354 356 354 352 349 350 348 347 349 343 341 342 346 354 346 349 346 340 339 340 337 337 339 336 333 333 335 338 352 347 349 349 353 356 354 356 355 354
353 355 359 361 362 361 362 363 363 362 362 362 363 361 363 363 360 360 358 357 361 364 365 365 369 366 367 368 369 369 369 367 367 366 364 365 366 363 360 359 356 355 354 355 355 354 356 352 353 356 350 352 349 354 354 350 343 343 347 340 336 334 344 343 343 345 331 331 334 333 336 332 334 336 340 339 343 343 344 347 349 354 354 353 354
355 355 357 359 361 362 363 363 364 364 363 362 364 364 365 366 367 366 364 362 367 368 368 367 365 366 362 364 365 365 367 368 365 361 365 366 363 359 360 358 358 358 357 356 356 355 356 357 352 351 356 344 343 348 351 349 344 343 335 338 337 337 330 337 341 344 337 336 331 331 337 333 335 344 345 339 335 342 342 347 347 350 351 352 354
353 354 355 356 358 361 363 363 363 364 364 363 364 366 366 366 366 366 370 368 365 365 364 361 361 363 362 364 366 367 369 369 365 365 361 360 360 364 360 360 360 358 357 357 359 351 351 349 353 351 350 348 342 346 349 346 351 351 340 337 333 330 330 333 330 343 340 338 331 331 340 337 334 343 345 346 347 347 342 341 347 347 350 351 348
352 354 354 356 359 361 363 363 363 365 364 364 364 366 365 363 362 361 362 362 360 359 357 357 358 359 358 363 367 364 365 368 368 363 360 366 365 363 361 358 357 359 356 360 361 364 354 354 351 352 350 350 348 345 347 350 348 350 350 349 345 334 336 338 337 333 344 337 346 334 344 333 336 341 346 341 346 338 343 343 347 343 344 345 348
352 355 355 357 360 362 363 364 363 364 366 366 365 365 365 364 363 361 362 360 359 359 364 362 362 364 364 362 361 364 364 367 364 364 365 365 364 363 361 359 358 358 357 355 359 348 349 352 350 352 355 352 351 346 344 341 345 351 343 343 344 346 341 340 333 337 332 345 344 337 332 338 333 334 339 337 335 339 342 346 337 335 345 342 345
352 353 354 357 360 363 364 364 364 364 365 367 366 366 364 364 364 364 364 362 358 359 363 364 367 367 365 362 359 359 361 363 362 366 364 363 362 362 361 361 359 355 356 355 355 357 352 354 356 352 353 357 352 348 345 344 348 345 347 344 344 346 348 340 342 335 335 330 336 338 332 333 341 331 333 338 333 336 344 344 344 345 346 339 346
352 353 355 357 361 364 365 366 364 365 366 368 367 366 366 366 366 366 363 362 362 362 362 364 364 363 361 364 363 360 364 366 365 363 363 362 362 361 361 361 358 356 354 353 350 348 351 351 353 354 351 352 353 351 345 347 342 342 345 345 345 346 343 339 339 343 337 331 327 329 339 339 338 337 340 343 341 340 342 336 343 341 343 349 340
353 357 356 358 361 363 365 366 365 365 367 368 368 367 367 368 367 365 363 363 364 363 361 361 363 364 362 362 363 364 362 364 364 364 364 362 361 361 359 358 355 349 348 352 349 353 352 352 352 350 351 350 353 354 348 347 353 346 347 344 347 343 345 342 337 339 339 338 329 331 329 331 338 337 345 342 337 340 345 345 345 346 341 347 349
353 355 355 357 359 362 364 365 365 366 367 367 368 367 367 368 368 366 364 363 364 364 362 362 361 362 361 360 362 364 363 362 360 363 362 360 361 360 356 357 355 354 355 357 353 349 345 347 347 353 351 350 349 349 348 348 348 354 346 345 343 341 338 340 339 336 335 334 336 327 327 328 330 331 342 343 347 345 346 350 347 340 344 339 342
Wind_Speed
6 9 8 14 14 15 14 18 17 20 18 18 16 16 15 15 13 10 14 17 17 17 17 17 18 18 18 17 17 17 16 16 16 16 16 15 15 15 14 15 15 15 15 14 14 13 13 12 12 12 11 11 11 10 9 8 8 9 9 9 10 9 9 9 9 9 9 9 9 8 8 7 8 7 7 9 10 10 10 10 8 6 5 7 11
11 10 9 11 16 19 15 17 18 20 19 19 18 18 18 18 15 11 10 14 17 17 17 17 17 17 17 16 16 16 15 15 16 16 16 16 15 15 14 15 15 14 14 14 14 13 12 12 12 12 11 11 10 10 10 9 8 8 8 9 9 9 9 8 9 9 9 10 9 5 8 7 8 8 7 8 9 10 11 11 9 5 2 9 10
12 11 10 12 15 19 20 19 20 21 20 20 18 18 19 20 18 14 14 14 16 17 17 17 16 16 16 16 16 15 14 14 15 15 16 16 15 14 14 14 14 13 13 13 13 12 12 12 12 12 11 11 10 10 10 9 9 9 8 8 8 8 8 8 7 8 10 10 9 8 8 6 7 8 8 8 9 10 11 11 11 10 5 9 9
15 11 10 12 13 15 18 18 18 20 20 19 19 18 17 17 18 15 13 16 16 17 16 16 15 15 15 15 14 14 14 15 15 15 15 15 15 13 13 14 13 13 13 13 12 12 12 11 11 11 11 11 10 10 10 9 10 9 8 7 7 6 7 7 6 7 8 7 6 7 2 3 5 7 8 9 9 11 12 13 13 12 11 6 9
16 12 10 11 10 14 19 19 18 20 20 18 16 15 14 16 16 16 14 16 16 16 16 15 15 14 14 14 13 14 14 15 15 15 15 14 14 13 12 13 13 12 12 12 12 12 12 11 10 11 11 11 11 10 10 9 9 9 9 8 8 7 7 5 6 7 7 3 3 5 2 3 1 7 9 10 10 11 13 13 13 12 12 11 10
15 14 11 11 11 12 19 20 21 20 18 18 16 15 17 16 16 17 16 16 16 15 15 15 14 14 13 13 13 13 14 14 15 14 14 14 13 12 12 12 12 12 11 11 12 11 11 11 11 11 11 10 10 10 10 9 9 9 9 9 8 7 6 5 5 7 5 5 4 1 6 3 3 6 9 10 12 11 12 13 12 13 13 11 10
16 13 14 11 8 9 14 18 21 20 18 17 16 17 18 16 16 16 15 15 15 15 14 14 14 13 13 12 12 13 14 14 14 13 13 13 12 11 11 11 11 11 11 11 11 11 11 10 10 11 11 11 11 10 9 9 9 9 9 9 8 7 6 4 4 5 4 3 1 1 5 5 5 5 10 10 11 11 13 13 13 13 12 12 12
13 12 13 14 12 12 16 17 19 19 19 18 18 15 15 15 15 15 15 14 14 14 14 14 13 13 12 12 12 13 13 14 13 13 12 12 11 11 12 12 11 10 10 10 10 10 10 10 10 11 11 10 10 9 8 8 9 9 10 9 8 7 6 6 6 6 5 3 3 2 2 1 2 5 9 10 11 12 12 12 11 12 12 12 13
14 14 14 13 13 17 17 18 18 19 19 17 17 16 15 15 14 14 14 13 13 13 14 13 12 12 12 12 12 12 13 13 12 12 11 11 11 12 12 12 10 10 9 9 9 9 9 9 9 10 10 9 9 8 8 8 9 9 9 9 8 7 6 6 7 8 7 3 2 2 1 1 1 6 9 10 11 12 12 11 9 11 11 13 12
15 14 14 12 13 18 19 18 18 19 18 18 17 16 15 14 14 13 13 13 13 13 13 13 12 11 11 11 11 11 12 13 12 10 10 11 12 12 12 11 9 8 8 8 7 8 7 7 7 8 8 7 7 7 7 7 8 8 8 9 8 7 7 7 9 10 6 3 1 1 3 3 1 7 9 11 12 10 9 10 8 8 8 10 12
17 15 14 14 16 17 19 19 18 17 17 17 16 15 15 15 14 13 14 13 13 13 12 12 12 10 10 10 11 11 11 12 10 10 10 11 11 11 10 9 8 7 7 7 7 7 6 5 7 8 8 7 6 7 7 6 7 7 8 7 8 7 7 7 7 4 4 4 2 3 3 3 3 5 11 11 11 9 8 10 11 10 10 12 12
16 15 14 12 17 16 18 18 17 16 16 16 15 15 15 15 15 14 14 13 13 13 12 11 11 10 10 10 10 10 10 11 10 9 10 10 10 10 9 9 7 6 6 6 6 7 7 6 6 7 6 6 6 6 6 6 6 7 7 6 7 6 6 6 4 3 3 3 1 0 4 4 5 8 11 10 9 10 10 10 10 11 11 12 11
16 15 14 13 13 16 17 17 15 15 16 15 14 14 15 15 15 15 14 13 13 11 11 10 10 10 10 9 10 9 9 9 9 9 9 10 10 9 8 7 6 6 6 5 6 7 8 7 5 6 5 4 5 4 5 5 6 6 6 5 5 6 5 5 3 3 3 2 2 3 3 3 6 10 9 10 10 11 11 11 10 11 11 11 12
16 15 14 13 11 16 16 15 15 15 15 15 14 14 14 15 14 14 14 13 13 12 11 11 10 10 9 9 9 9 9 9 8 9 9 9 9 9 8 6 5 5 5 4 5 6 7 6 5 6 5 4 4 4 4 3 4 4 4 4 4 4 5 6 5 4 2 2 2 2 3 2 5 9 9 9 9 11 11 11 11 10 11 11 12
17 17 16 13 13 12 17 15 14 15 14 14 14 14 14 14 14 14 14 13 13 13 12 11 11 10 9 9 9 9 8 8 8 8 8 8 9 8 7 6 5 4 3 4 4 5 6 5 4 4 4 3 4 4 2 3 3 2 3 2 3 3 4 5 4 3 2 1 1 2 2 2 8 9 8 9 10 10 11 12 11 11 10 11 11
18 18 16 14 13 12 11 14 15 15 15 14 13 14 14 13 13 13 13 13 13 12 11 11 10 9 9 9 8 8 8 7 7 7 7 8 8 7 7 5 4 2 2 3 4 5 5 4 4 3 3 4 3 3 1 3 2 0 2 1 0 3 1 8 3 1 1 1 0 1 1 1 7 8 8 9 10 10 10 11 11 11 10 10 11
17 17 16 15 14 12 11 10 12 15 14 14 14 13 13 13 13 12 12 12 12 11 11 10 9 9 8 8 8 8 7 6 6 6 6 6 6 6 5 5 3 2 1 2 2 4 4 4 3 2 3 3 2 0 2 2 1 2 1 1 1 1 1 7 4 1 1 2 1 1 2 2 3 7 8 9 10 10 10 10 11 10 10 10 10
17 16 15 15 14 13 11 11 12 10 10 12 14 13 13 13 13 12 12 12 12 11 11 10 9 9 8 7 7 7 7 7 6 6 5 5 5 5 5 3 2 1 1 1 2 3 4 4 3 3 2 1 1 2 1 1 2 3 2 3 2 1 2 2 2 2 2 4 2 2 2 4 7 7 8 9 9 10 11 10 10 10 11 10 9
15 16 16 15 14 13 13 11 11 10 11 9 9 10 13 13 13 12 11 12 12 11 10 9 9 9 8 8 8 8 7 6 6 5 4 4 5 5 3 3 2 3 1 2 2 3 4 2 3 4 3 2 1 2 4 4 5 5 5 5 4 3 8 8 4 4 4 2 2 2 3 6 9 8 8 8 9 9 10 11 10 10 11 11 10
13 14 14 13 13 13 12 11 10 11 10 10 10 10 12 13 13 12 12 11 11 11 10 10 9 9 9 9 8 7 6 5 6 5 4 3 4 1 5 2 0 2 2 2 2 3 3 3 3 3 4 4 3 3 4 5 6 8 7 7 7 8 8 2 3 2 1 2 2 2 4 7 9 10 9 9 9 9 10 11 11 10 10 10 10
10 12 11 11 13 13 13 10 11 12 11 11 10 10 10 13 11 12 12 11 11 11 10 10 9 9 8 8 8 5 4 3 5 4 5 3 5 4 2 2 1 1 2 3 2 3 3 3 3 4 4 5 5 6 6 7 8 9 8 7 8 6 7 7 4 3 2 2 2 3 8 9 9 10 10 10 10 10 10 11 11 11 11 10 10
10 10 11 12 11 11 12 11 10 12 10 8 8 8 8 10 9 9 8 9 10 10 8 7 8 5 9 6 4 3 2 1 1 1 2 3 3 4 3 3 2 2 1 2 3 4 4 5 4 5 5 5 5 4 4 7 10 11 9 5 2 5 7 3 4 4 5 4 3 5 9 10 10 10 10 11 10 10 10 10 11 11 11 11 11
11 10 9 12 10 10 11 11 12 10 11 9 8 8 9 7 8 8 7 10 9 9 7 7 6 5 5 5 4 3 3 1 1 3 2 3 4 6 4 4 3 3 3 4 4 4 6 6 6 6 4 6 4 4 3 1 3 9 8 4 6 5 3 5 2 2 1 4 3 8 10 10 10 10 11 11 11 11 11 11 11 11 11 12 12
11 10 10 10 11 9 10 10 11 9 8 7 8 8 8 7 6 7 6 7 7 7 6 5 5 5 6 5 4 4 4 2 4 5 4 4 4 5 4 4 5 5 5 4 6 6 6 7 7 7 4 3 3 2 2 3 3 2 1 3 5 7 6 11 9 7 6 4 4 10 10 10 11 10 11 11 11 10 11 11 11 10 10 10 11
10 10 9 10 10 11 11 10 10 9 9 7 7 8 7 7 7 6 6 6 6 6 6 6 5 5 5 4 4 4 4 2 3 3 4 3 1 1 1 2 2 1 3 2 0 2 4 3 3 4 3 2 1 2 3 3 1 2 2 4 2 3 2 2 7 6 5 4 7 12 10 9 10 10 11 11 11 10 10 10 11 11 10 10 10
11 9 10 11 11 11 11 10 11 10 8 7 7 7 8 6 6 6 6 6 6 5 5 5 5 6 5 6 4 4 4 3 4 3 3 1 1 2 1 1 1 1 2 2 1 2 2 2 2 1 0 2 1 1 4 1 2 0 3 3 1 1 2 2 2 6 6 6 6 12 11 10 10 9 10 11 11 11 10 10 11 11 11 11 10
10 10 11 10 11 12 11 11 10 8 8 7 6 6 6 6 6 6 6 5 5 5 5 5 5 6 6 5 5 4 3 4 4 3 2 3 2 2 1 0 1 0 1 2 2 2 3 3 1 1 2 3 1 2 2 2 1 2 3 4 0 2 2 1 1 2 7 5 8 13 11 11 10 9 9 10 11 11 11 11 11 10 10 10 10
11 13 11 11 10 13 11 11 9 9 8 7 7 6 6 8 7 7 7 5 6 5 5 5 5 5 5 5 5 4 5 6 4 5 3 1 2 2 2 1 2 0 1 2 1 2 4 2 2 2 1 2 2 2 2 1 2 3 3 2 3 4 2 1 2 3 2 7 6 10 12 12 12 11 10 10 10 11 11 11 11 11 11 10 11
11 14 11 12 13 12 12 12 11 10 8 8 7 6 7 6 7 7 7 7 5 5 4 4 4 5 5 5 5 6 7 6 4 4 4 3 3 3 1 1 2 2 1 3 2 3 3 2 2 1 1 2 3 2 2 2 2 2 2 2 3 4 3 2 0 2 3 8 6 8 12 12 11 11 11 11 11 10 10 11 10 11 11 11 11
11 13 12 11 12 13 13 13 12 10 8 9 6 6 5 5 4 5 5 6 4 5 4 5 3 6 5 5 4 3 3 5 4 2 2 4 2 3 3 1 1 3 3 2 3 2 2 2 3 2 1 1 3 3 2 3 3 3 1 2 3 2 0 2 2 2 2 5 7 7 13 12 12 11 11 11 12 12 12 12 12 11 10 9 10
11 12 12 11 11 13 13 12 11 10 8 8 6 6 6 5 6 5 5 5 5 5 5 5 9 7 6 6 5 3 1 1 5 3 2 4 2 2 1 2 2 1 0 1 1 2 1 2 3 3 2 3 4 3 2 2 2 5 3 1 2 1 1 2 5 2 1 6 7 7 8 14 12 12 11 12 11 12 13 12 12 12 12 10 9
12 11 10 9 13 14 14 13 12 10 8 10 7 5 5 5 5 4 4 4 5 4 4 4 3 2 6 6 2 3 3 2 5 2 2 3 3 2 1 1 0 1 1 2 2 2 1 1 2 4 4 3 0 3 2 2 2 3 3 1 1 1 3 3 5 4 2 2 8 7 6 7 13 12 13 12 12 12 12 13 12 12 12 12 9
11 12 10 12 14 13 12 13 11 10 9 10 8 6 5 5 4 4 4 4 4 3 4 3 3 2 6 5 4 2 2 2 3 4 3 4 4 3 2 1 1 1 2 2 3 2 2 2 2 1 3 0 4 1 1 2 3 3 4 2 2 3 2 4 2 3 2 2 4 5 8 6 7 12 13 12 13 13 12 12 11 11 11 10 10
11 10 11 13 11 11 10 11 11 12 10 9 6 6 6 5 5 5 4 4 3 4 4 3 2 3 4 6 4 3 2 3 3 3 2 5 5 3 3 2 1 0 1 2 3 0 2 3 3 5 6 2 1 1 1 2 0 2 2 3 4 3 3 2 3 1 2 5 3 3 3 5 3 3 5 10 11 13 13 13 13 12 9 7 11
10 12 12 11 10 10 9 10 11 12 11 9 7 7 6 5 5 5 4 4 4 4 4 3 3 3 3 4 6 4 4 3 3 3 2 3 4 4 3 2 1 1 2 1 1 2 2 1 1 2 3 3 2 3 3 3 3 3 1 2 4 2 4 2 1 2 6 3 3 3 4 4 4 4 3 4 7 10 11 12 12 13 14 14 12
12 11 11 11 10 10 9 11 13 11 11 8 6 6 6 5 4 5 4 4 4 4 3 4 4 4 5 5 4 4 3 1 2 2 3 3 2 4 3 3 3 2 2 2 1 1 1 0 1 3 2 3 3 3 4 2 2 1 2 3 3 3 3 4 4 5 4 4 2 2 4 2 4 0 5 5 4 6 9 9 9 11 12 13 10
13 13 12 11 10 10 9 11 15 12 11 10 7 6 5 5 4 4 5 4 4 3 3 4 3 3 4 5 6 6 5 5 3 3 3 2 3 4 3 3 3 2 2 0 1 0 1 2 3 2 2 2 3 4 3 3 3 1 1 3 3 3 4 2 3 4 2 3 3 2 4 3 3 5 4 2 4 2 4 2 4 3 7 10 12
13 14 13 12 11 10 9 9 10 13 9 9 7 6 5 4 4 3 4 4 6 5 4 4 3 3 3 3 8 6 5 5 4 2 2 3 3 4 3 5 4 3 3 1 2 2 2 4 2 2 2 2 2 3 4 4 4 3 3 3 4 4 4 3 3 2 4 1 1 0 3 5 4 4 7 6 3 3 3 5 5 4 5 7 9
13 14 13 12 11 9 8 9 7 11 10 8 8 6 6 5 4 5 4 4 3 4 4 3 4 4 4 5 7 6 6 5 4 3 3 3 2 3 6 5 4 2 4 3 2 2 3 3 2 1 1 2 2 2 2 3 2 4 3 2 5 2 3 3 2 3 3 3 3 3 6 3 5 7 7 5 3 3 3 3 3 3 2 3 5
11 12 12 13 12 10 9 9 8 8 8 8 7 7 6 6 6 5 5 5 4 4 4 4 4 3 3 7 7 6 6 5 4 2 2 4 3 2 3 5 4 4 3 2 2 5 3 1 1 2 2 2 2 3 1 1 2 2 3 1 1 2 1 1 3 5 1 3 2 3 4 2 3 4 6 6 4 5 4 3 4 3 2 3 2
12 13 13 14 13 12 11 11 9 8 9 9 8 8 8 7 7 7 7 6 5 5 5 4 4 4 3 7 7 6 6 6 5 5 4 4 3 2 4 5 5 4 2 3 5 2 2 1 2 2 2 2 2 2 2 1 2 2 2 3 2 2 3 3 4 4 2 1 3 4 3 5 5 5 4 4 4 6 4 3 4 3 2 3 4
13 14 15 14 13 14 13 11 10 9 9 10 9 9 7 7 7 7 6 6 6 6 5 4 4 1 7 6 4 5 6 7 5 4 4 5 3 3 4 5 5 4 4 4 4 2 2 2 2 2 2 2 2 1 3 1 1 2 3 1 1 2 3 5 4 7 4 4 4 4 5 5 6 6 5 3 4 4 3 3 3 5 4 4 3
16 16 14 14 14 13 12 11 11 11 9 10 10 9 8 7 7 6 6 5 5 5 4 3 2 4 5 6 4 4 4 4 5 6 6 6 4 3 4 5 6 5 3 5 3 3 3 1 3 2 2 2 1 1 2 2 1 3 1 1 1 2 3 4 5 0 3 4 5 4 3 7 5 5 5 5 4 5 4 3 3 2 2 6 4
14 14 15 16 13 12 12 12 11 12 11 10 10 10 9 8 7 5 6 5 2 3 4 3 3 3 5 6 5 5 6 6 5 4 5 2 5 6 6 5 5 5 5 4 4 3 2 2 2 2 1 2 2 2 1 4 1 3 3 2 2 1 2 1 2 2 2 2 7 4 3 7 5 2 3 3 4 4 4 3 3 1 1 2 6
15 15 16 16 13 16 14 13 11 12 11 11 10 9 9 8 6 6 4 5 4 4 3 4 5 5 5 6 6 6 5 4 5 5 3 4 6 7 6 6 6 5 4 4 2 3 4 5 3 4 1 2 2 2 2 3 2 2 1 2 2 2 4 3 4 2 4 1 4 6 2 3 5 3 3 1 1 2 3 4 3 1 1 0 2
15 15 16 16 14 13 13 13 11 11 11 12 11 9 9 9 8 8 6 4 5 6 7 7 7 7 8 6 5 5 5 5 5 6 7 6 6 7 6 6 6 5 4 3 3 1 2 1 5 3 3 3 2 2 1 2 3 2 2 2 2 1 1 3 1 1 2 3 1 5 1 8 4 5 4 4 2 3 3 2 3 3 2 2 0
16 14 14 14 15 13 13 14 12 10 11 11 12 10 9 9 10 9 7 7 7 7 6 6 6 6 5 6 5 4 3 4 7 7 7 6 5 5 5 6 6 6 4 3 2 3 3 4 4 2 3 3 1 2 2 1 3 1 2 2 0 1 2 1 2 2 2 2 2 1 3 2 5 6 2 5 4 3 2 2 3 3 2 3 2
17 16 16 14 15 14 15 14 12 11 11 11 13 11 10 10 10 9 8 8 9 8 8 7 5 5 6 7 6 4 5 9 6 5 6 6 6 6 5 4 4 6 5 4 3 2 5 3 2 5 3 2 1 0 2 2 1 1 3 2 2 2 2 3 1 2 1 2 3 4 3 2 0 5 3 1 8 5 5 3 2 1 2 4 1
17 16 15 14 14 14 14 14 13 12 11 13 13 13 11 10 10 9 9 8 8 7 7 6 6 6 6 5 9 9 9 6 4 7 5 7 6 6 5 3 3 3 3 5 4 5 5 6 4 3 4 2 2 2 2 2 2 3 2 2 2 2 2 4 2 1 1 2 3 2 1 2 2 3 2 1 2 4 5 4 4 2 0 2 3
16 14 14 14 14 14 14 15 15 12 12 13 13 14 12 10 10 10 11 9 7 6 6 7 6 6 5 6 6 6 6 6 5 7 6 7 7 6 5 4 4 4 5 4 4 5 4 3 4 5 5 4 3 1 2 3 2 3 3 3 1 2 2 1 2 2 1 1 3 2 4 3 2 2 1 2 5 1 0 2 1 1 3 1 1
14 15 16 15 15 15 15 17 16 13 13 14 14 14 13 11 10 11 11 10 9 7 6 6 7 6 6 7 6 6 6 6 6 6 7 7 6 7 6 6 4 4 2 1 1 4 6 4 4 2 3 3 3 3 2 2 0 3 2 3 3 2 4 2 2 1 1 2 1 4 5 5 2 3 1 2 2 2 2 1 2 3 3 4 3
Wind_Direction
146 122 119 116 115 110 116 119 116 114 116 117 114 122 121 112 103 89 100 110 110 108 103 97 95 94 94 96 98 98 99 100 102 102 100 99 99 99 102 102 100 98 97 95 93 91 89 89 88 86 85 84 86 86 85 80 79 79 75 79 81 80 84 85 89 88 90 85 68 78 83 92 91 84 86 91 94 101 107 105 97 96 94 105 108
145 132 123 124 126 122 129 129 127 128 131 121 120 124 126 117 113 109 110 121 114 109 103 98 98 98 100 101 101 103 105 106 106 104 104 103 102 103 103 101 100 99 97 96 94 91 88 85 85 84 82 83 82 84 85 84 79 86 88 83 81 84 83 86 87 91 90 88 91 66 81 82 90 87 83 88 93 95 101 100 95 89 96 117 111
138 130 129 134 135 135 135 142 133 135 130 123 121 121 125 128 129 133 144 129 113 107 103 100 99 100 102 103 105 108 110 109 105 105 104 103 103 103 104 102 101 101 98 95 94 92 88 86 84 84 81 79 78 79 79 77 77 76 90 91 86 84 87 85 82 80 83 89 85 64 29 79 84 89 84 82 88 100 107 106 110 106 107 112 110
131 127 129 132 140 139 133 132 130 128 126 124 122 126 130 128 128 133 131 117 111 108 106 106 107 106 105 106 109 111 111 108 105 103 102 102 103 102 100 99 100 96 94 92 90 89 86 83 81 80 78 77 75 73 71 66 71 77 77 79 83 82 79 89 95 86 95 94 89 85 30 323 84 91 92 88 95 101 106 108 110 118 117 99 105
126 129 126 134 146 146 134 133 127 122 122 126 129 133 131 127 130 128 126 115 111 110 109 109 110 110 109 111 112 112 109 106 103 101 103 103 103 103 98 96 93 89 87 83 81 81 80 76 73 73 73 72 71 71 67 65 62 66 69 66 66 74 76 78 84 73 73 84 92 117 93 295 73 97 99 96 99 103 106 111 116 119 124 122 114
129 129 130 136 145 147 134 131 128 125 129 132 133 132 133 135 134 129 121 117 115 113 114 113 112 112 114 116 113 110 107 104 102 103 104 102 101 101 99 96 91 83 80 80 77 76 74 72 69 65 64 63 60 61 62 59 55 58 61 62 68 69 65 68 82 99 118 118 102 109 126 103 295 108 106 102 101 106 111 112 120 123 123 119 114
128 133 137 136 143 148 134 130 127 132 131 129 130 132 133 134 125 120 118 117 116 116 116 116 116 116 116 116 114 109 106 105 105 106 105 104 106 103 97 89 83 79 75 74 71 69 70 70 66 59 56 54 51 50 52 53 49 50 52 57 65 72 68 50 53 90 96 92 61 129 98 142 228 103 111 109 106 111 112 118 123 127 126 124 116
135 136 134 138 138 147 132 129 130 132 132 132 131 133 130 126 124 121 119 118 119 120 118 117 118 120 121 118 115 112 108 107 108 110 110 110 109 103 98 88 82 78 73 69 68 65 64 66 63 62 57 52 46 41 41 46 46 44 47 52 57 60 60 53 60 83 89 62 24 21 40 56 58 112 116 113 115 114 115 120 124 128 130 125 116
137 136 134 131 132 135 133 133 132 132 132 133 134 136 134 131 127 123 123 124 123 121 119 119 122 126 126 122 118 114 111 109 110 112 114 113 105 99 93 89 84 81 78 72 69 68 65 63 61 61 59 50 39 31 28 33 41 41 41 44 51 44 47 54 67 75 85 60 40 4 9 183 161 114 122 119 115 117 118 119 122 126 129 122 118
135 131 131 131 137 136 138 138 137 134 134 133 133 134 133 129 128 127 129 131 128 124 123 125 126 127 123 123 120 117 114 111 115 114 113 108 102 97 94 90 89 87 86 82 76 72 73 64 59 61 65 54 39 31 32 25 36 40 38 36 38 44 33 39 67 66 72 75 97 266 255 175 171 117 131 127 122 123 131 130 135 131 125 122 124
137 133 132 135 135 140 139 139 137 135 134 134 135 133 133 133 131 138 141 136 129 127 127 127 127 127 124 122 118 116 114 115 119 119 114 109 105 100 97 97 96 90 86 79 76 74 73 61 47 50 48 48 36 25 30 28 32 36 28 28 32 37 36 35 53 85 107 120 169 240 177 157 117 104 133 132 129 131 130 124 120 122 124 121 121
135 128 132 128 136 140 139 137 134 134 134 135 135 134 133 136 142 146 139 134 130 128 131 130 130 128 127 120 120 118 117 119 123 123 113 108 106 101 97 94 94 90 77 74 72 71 64 58 47 43 42 40 30 19 22 33 38 35 35 25 26 42 47 30 46 66 80 50 350 274 107 119 105 124 130 134 131 125 125 126 125 123 124 126 129
130 129 127 132 134 139 139 135 133 133 136 136 136 134 136 138 141 142 138 132 126 129 132 130 133 133 129 127 122 122 120 125 131 122 114 111 109 107 102 97 91 83 75 62 62 60 59 56 42 40 36 40 41 16 8 32 36 38 36 19 20 42 39 42 75 65 61 71 357 352 34 11 95 130 138 136 132 127 129 128 131 133 131 130 132
134 132 136 135 135 140 136 133 134 135 136 137 136 136 138 139 140 138 138 136 134 138 140 140 141 139 136 135 132 127 129 133 136 125 117 114 113 110 106 101 90 76 65 51 36 48 48 51 31 35 36 39 33 31 6 31 34 35 38 31 348 21 46 41 68 47 46 51 32 10 56 342 117 137 140 141 137 135 136 135 137 136 134 134 133
137 140 140 134 137 137 137 135 136 138 136 136 136 138 140 139 136 139 140 142 144 144 148 148 150 146 146 142 137 133 136 138 135 127 123 118 115 114 111 107 92 70 56 48 30 32 33 36 37 18 37 61 57 46 19 18 69 51 51 49 346 336 66 88 36 56 360 68 68 14 13 344 129 143 144 148 148 147 143 140 139 140 140 139 137
139 138 134 137 137 137 137 140 139 137 135 135 136 140 140 136 137 141 145 147 147 149 148 150 151 152 149 145 140 139 138 141 130 128 125 123 120 116 122 116 110 107 55 34 26 18 9 20 27 21 37 65 75 113 66 54 85 20 91 85 289 325 360 97 89 22 64 6 120 101 19 126 143 149 151 153 154 150 148 143 143 144 143 142 142
133 134 138 139 138 143 140 144 140 137 138 141 142 143 141 142 143 148 150 149 149 147 151 153 155 155 152 144 144 143 144 143 143 135 130 116 122 122 120 120 124 134 101 27 18 354 355 3 10 19 27 54 93 120 65 93 217 250 166 142 146 283 290 104 121 224 160 177 104 115 93 106 179 162 156 155 155 154 152 151 147 147 143 145 145
135 138 136 140 146 147 147 142 142 144 144 148 148 145 145 147 150 152 153 152 152 153 155 159 159 156 154 154 151 152 157 159 154 144 128 120 115 130 126 115 153 156 202 341 331 334 339 349 337 335 13 33 117 248 262 193 212 229 198 195 193 118 288 88 111 181 217 149 179 139 117 167 175 182 162 158 160 158 154 154 153 150 147 148 149
135 136 139 146 149 148 144 141 150 151 149 151 154 150 150 153 155 157 158 156 158 158 160 160 162 161 161 161 166 164 168 169 160 153 151 147 144 142 122 115 34 17 70 244 291 332 329 317 333 317 330 339 302 239 240 222 219 219 215 202 194 123 50 359 13 355 29 314 149 150 143 157 177 178 170 160 160 160 160 159 159 156 153 150 154
133 138 144 147 148 146 143 151 155 154 157 154 153 155 159 158 158 160 161 160 159 161 164 165 167 168 168 168 172 174 172 176 179 174 170 175 169 7 147 125 116 13 352 334 308 317 292 308 305 305 299 291 281 250 249 238 236 232 217 199 194 153 115 281 271 51 342 301 225 146 135 169 183 180 170 170 161 164 167 165 160 160 157 155 155
140 143 146 150 149 145 150 153 158 157 160 154 155 156 160 162 160 163 164 162 165 167 169 171 170 173 174 176 177 185 185 182 184 212 170 195 168 180 207 159 194 284 330 324 287 284 284 299 279 269 275 272 280 274 264 264 257 255 240 206 191 175 139 155 172 161 221 275 232 150 160 176 175 177 173 177 170 166 169 168 166 162 159 160 158
142 144 146 149 143 150 154 154 156 161 156 152 156 156 156 165 166 163 167 170 172 174 173 177 180 173 185 179 186 197 157 211 123 297 197 184 180 201 210 241 246 290 290 291 266 267 265 259 250 247 257 265 257 253 241 241 252 260 265 310 341 350 105 150 150 156 206 167 224 154 172 168 166 174 181 180 178 169 171 171 172 169 165 164 164
146 145 148 145 148 149 153 155 157 161 155 156 155 155 159 171 166 170 169 175 180 177 179 185 181 176 191 176 196 175 160 127 173 210 207 198 208 181 230 251 245 236 219 241 248 251 259 263 260 268 266 269 258 222 212 268 18 305 311 280 141 212 125 118 321 178 244 183 211 158 177 162 165 173 181 189 180 175 173 173 175 176 173 169 168
147 150 150 148 151 154 154 154 154 156 155 161 161 154 163 171 169 174 171 179 177 187 185 186 185 185 187 190 181 153 149 164 216 210 207 217 206 201 231 262 268 249 242 231 228 237 252 267 273 273 260 237 256 294 10 112 206 152 312 278 234 202 183 148 181 165 174 180 142 171 176 164 160 175 184 187 184 185 177 173 178 180 178 176 175
148 147 149 154 153 155 156 153 156 160 167 160 165 160 162 173 174 172 176 181 179 185 190 188 189 184 195 192 188 144 147 185 230 216 222 229 295 106 211 206 239 260 218 262 252 253 221 224 233 235 275 299 341 337 343 24 94 339 287 232 281 359 327 134 152 147 150 148 143 182 174 168 166 175 186 185 192 190 182 181 180 180 183 182 182
150 154 155 156 158 158 160 158 162 166 169 160 165 162 161 170 174 181 178 181 184 185 191 192 180 184 193 196 166 145 152 213 206 206 211 261 254 43 234 199 126 32 8 315 279 319 278 239 216 242 274 269 307 69 296 327 70 251 276 289 270 302 342 277 143 152 151 151 158 179 170 168 173 176 187 189 190 191 189 187 189 187 185 184 186
159 157 156 162 160 164 160 161 165 166 168 164 167 156 166 172 178 176 185 191 182 189 189 189 186 181 193 186 160 147 176 222 203 160 193 208 172 154 182 128 86 210 104 278 297 282 259 264 216 259 214 251 197 230 183 89 277 254 255 269 349 269 214 128 100 74 144 151 157 170 163 166 170 181 191 187 188 193 193 194 196 195 190 188 190
167 154 160 162 164 163 159 170 158 172 165 172 164 166 174 176 181 185 182 186 182 186 192 184 185 183 183 199 163 163 135 242 179 182 182 95 125 183 198 189 116 326 357 298 239 313 266 267 269 191 253 314 311 305 24 284 225 241 284 339 5 315 281 3 122 125 162 137 141 167 164 166 170 174 188 185 192 187 194 198 199 195 196 194 197
171 156 161 162 169 164 165 174 165 172 171 176 173 176 178 188 176 187 179 184 177 186 175 168 183 191 193 197 181 182 168 207 192 171 166 152 142 138 78 128 176 180 163 239 235 228 226 248 234 249 226 244 252 56 55 270 297 268 39 24 329 285 60 266 161 138 190 144 146 165 163 168 169 174 181 187 184 189 195 197 198 201 201 200 201
172 158 165 165 168 166 169 175 171 177 170 183 180 174 183 186 189 176 184 173 175 181 185 174 199 199 175 188 199 211 224 158 96 52 95 110 105 99 150 231 123 159 180 295 258 251 299 301 309 250 258 299 360 47 314 339 318 321 224 111 255 296 222 5 313 218 175 126 141 156 170 171 169 169 179 188 191 191 192 197 201 205 205 203 211
171 167 164 167 170 168 174 175 171 172 174 185 185 174 168 193 179 188 184 182 195 164 191 207 189 194 171 166 179 188 223 265 113 125 122 134 146 113 98 205 229 140 236 232 62 299 357 36 289 318 10 347 35 315 334 287 347 288 3 217 286 328 10 7 268 213 46 120 155 156 173 174 172 172 173 186 195 193 195 196 196 200 205 202 213
171 178 167 163 171 176 173 176 173 168 179 186 176 186 174 182 182 187 188 194 181 194 196 195 231 175 125 161 131 156 190 254 111 124 170 115 103 111 123 358 246 17 308 334 341 331 294 234 298 352 340 60 198 257 319 299 263 306 313 290 326 284 43 302 282 33 4 138 156 159 149 180 177 175 176 181 189 194 200 198 197 196 201 200 190
172 183 171 173 170 184 169 172 173 166 178 194 175 179 177 188 184 190 197 191 183 198 215 197 201 170 113 124 131 158 237 183 141 163 201 103 114 115 134 187 343 17 42 302 288 295 6 350 358 201 287 181 259 344 284 340 335 351 327 6 306 43 339 275 18 25 2 318 44 111 166 173 177 179 181 182 185 189 194 201 201 196 194 190 182
171 181 182 180 173 184 172 173 174 171 182 196 171 181 177 185 191 188 194 194 183 199 209 213 175 130 107 133 147 162 227 194 176 184 183 121 133 152 158 177 166 241 250 246 276 57 18 19 4 1 289 272 284 262 214 235 217 269 290 349 296 65 289 288 47 152 252 47 17 333 75 152 154 166 189 188 188 191 192 192 193 197 159 194 195
170 177 186 178 187 174 176 176 173 172 180 197 183 180 177 184 188 194 190 180 194 203 207 196 182 130 132 141 145 171 202 193 182 159 189 154 162 156 171 160 139 162 241 204 268 358 46 63 326 289 301 290 317 291 261 222 192 205 197 310 301 60 327 342 82 302 52 77 61 4 32 61 148 167 178 179 201 194 192 194 195 192 172 186 206
175 171 184 177 195 174 187 173 173 166 177 192 190 180 179 188 188 193 197 184 204 205 205 206 204 167 164 151 153 154 168 334 179 173 178 194 167 135 139 142 165 170 249 219 248 203 102 189 283 257 239 314 301 298 282 266 235 184 160 229 240 53 309 26 331 27 78 39 13 127 85 39 35 10 168 186 176 191 193 196 198 199 186 168 190
180 171 180 177 188 184 180 185 176 173 172 184 189 186 182 181 193 192 198 190 205 207 205 214 205 203 145 161 161 156 162 186 197 190 190 208 161 130 151 150 141 215 261 113 205 116 216 311 242 258 263 255 299 289 307 320 296 360 195 260 93 46 324 74 11 345 60 150 237 120 128 125 72 17 310 95 104 114 136 104 176 185 202 189 170
179 175 175 174 184 191 174 197 170 178 168 176 185 183 190 180 191 214 193 197 206 215 209 204 202 191 214 139 153 158 157 173 170 187 207 221 187 159 148 141 180 178 204 68 9 330 263 255 209 234 269 306 291 330 330 338 335 346 355 309 75 41 338 12 0 299 340 57 173 196 128 101 119 109 53 62 74 95 123 106 111 110 125 164 171
181 177 170 171 181 190 178 192 179 177 172 171 177 187 184 185 195 206 208 196 217 213 218 200 200 203 200 132 131 148 159 154 157 193 203 207 235 177 151 179 144 98 49 18 307 302 277 215 215 237 249 307 314 287 289 289 303 272 241 5 69 121 11 338 333 331 263 293 105 282 122 150 134 115 120 97 105 85 101 119 123 100 64 109 174
178 172 168 169 179 187 181 183 188 177 162 169 172 187 194 188 201 198 204 200 203 218 216 214 201 201 179 134 143 151 156 148 158 182 206 233 213 171 146 134 114 100 113 199 225 245 222 108 6 16 338 272 250 247 274 258 270 357 337 213 161 91 87 275 280 260 192 268 108 17 52 102 77 80 103 129 119 111 118 110 103 125 162 101 103
180 173 174 172 178 186 185 181 185 183 163 173 181 189 192 192 197 203 204 198 198 209 213 212 215 215 168 131 154 156 155 157 167 177 202 242 234 164 112 115 96 109 163 225 235 242 98 99 134 183 264 234 253 218 201 312 55 298 310 339 152 185 184 231 251 270 228 238 86 77 54 29 42 30 83 70 104 125 114 119 130 137 144 102 109
182 178 181 178 178 185 188 181 180 191 180 173 181 190 192 194 191 199 204 199 188 202 204 196 216 94 87 121 137 162 163 164 169 166 205 214 211 138 102 107 119 137 196 225 230 159 177 209 98 291 193 271 305 330 57 27 51 244 273 227 106 251 225 208 210 237 253 109 128 105 101 69 48 21 7 113 102 76 99 121 149 158 139 144 138
185 185 180 178 179 186 186 184 178 186 191 177 177 188 190 194 191 193 204 204 193 195 195 147 135 154 134 130 162 180 165 182 175 177 207 211 147 76 151 146 159 170 175 207 195 174 211 137 202 161 328 258 239 307 125 67 338 324 67 15 289 191 339 347 297 278 246 88 68 61 54 83 71 40 4 356 79 95 84 71 38 39 139 155 153
186 187 184 183 181 185 187 184 179 183 188 189 179 181 186 187 195 193 196 215 118 153 150 161 185 202 161 153 173 182 196 190 159 203 228 206 71 169 151 158 169 180 189 168 195 182 163 157 207 220 122 328 347 299 238 148 9 31 356 20 281 205 162 289 274 305 27 53 117 99 101 114 94 107 93 16 2 100 96 92 85 21 2 38 150
189 189 187 187 188 186 186 183 181 179 184 189 183 172 177 186 187 195 106 103 123 121 156 161 194 200 189 170 179 190 184 196 177 183 118 226 166 179 156 165 173 167 159 162 196 211 164 197 150 68 175 307 269 248 199 127 129 101 58 339 338 20 34 344 311 310 342 357 111 107 174 109 110 125 117 105 297 41 115 117 127 117 87 103 65
192 191 191 190 186 184 184 183 182 180 182 185 182 173 177 181 182 186 155 150 158 172 183 198 193 188 202 165 163 190 182 193 202 144 222 172 173 155 165 154 147 169 163 188 174 193 103 246 109 178 187 179 298 311 3 110 109 146 161 140 167 148 234 300 304 306 298 314 273 162 139 128 161 137 173 168 184 90 39 75 131 133 64 64 57
193 188 190 189 187 183 185 182 184 182 181 179 181 178 178 185 187 188 173 167 173 188 186 193 187 180 179 154 166 164 207 229 224 178 164 164 149 155 154 171 162 145 165 129 192 204 152 85 128 223 66 77 172 304 335 22 87 50 171 259 241 242 59 330 38 336 355 315 315 312 147 142 172 142 185 183 133 95 115 81 65 11 123 54 16
191 189 188 189 184 184 182 183 183 184 180 176 179 181 183 183 185 183 175 178 187 187 183 191 175 172 175 177 153 172 202 219 189 157 163 152 146 161 170 167 168 147 148 179 194 137 125 137 113 86 96 148 8 19 14 16 270 63 35 64 7 26 309 304 54 97 250 281 305 314 128 161 14 133 195 109 141 155 122 81 68 105 335 159 177
192 190 187 188 182 182 180 181 185 183 183 178 177 182 185 183 182 179 186 190 202 196 176 179 173 186 183 159 150 174 183 184 183 157 167 152 158 163 168 173 144 139 157 171 189 144 150 145 148 124 143 151 187 58 63 10 5 93 74 41 21 344 245 242 110 247 142 353 330 329 305 214 62 120 114 57 33 110 128 153 173 171 208 213 155
194 188 188 184 181 179 180 180 185 185 183 181 179 181 185 179 183 182 193 189 188 190 181 170 174 171 174 154 156 151 160 166 188 158 162 158 165 158 161 191 152 160 172 168 199 131 109 103 140 162 187 172 115 133 194 187 130 75 124 171 160 266 288 24 157 187 148 7 223 260 269 299 52 23 149 206 95 200 38 153 163 98 192 130 118
196 187 188 187 182 181 181 181 184 184 184 183 180 181 183 183 182 187 193 188 186 186 179 174 169 169 165 155 162 157 164 169 175 154 163 163 160 160 178 182 158 119 126 97 270 149 146 158 165 175 116 112 144 178 220 76 34 117 144 169 216 194 236 166 169 47 61 230 320 328 337 24 317 320 291 40 102 78 111 188 193 182 214 156 189